This demonstration page uses our WeatherBlox Daily Observations layout. Learn more.

Left ArrowRight Arrow

Hourly Observations for March 2, 2020

Temp ( °F °C ) Dew Point ( °F °C ) Humidity (%) Winds ( mph kmh ) Pressure ( in mb ) Visibility ( mi km ) Precip ( " mm )
12:51 am 00:51 Clear 50 10 31 -0.6 48 48 E 10 17 29.78 1008 10 16 0.00 0.00
1:51 am 01:51 Clear 49 9.4 30 -1.1 48 48 Calm 29.76 1008 10 16 0.00 0.00
2:51 am 02:51 Clear 44 6.7 31 -0.6 60 60 undefined N/A 29.77 1008 10 16 0.00 0.00
3:51 am 03:51 Clear 43 6.1 30 -1.1 60 60 Calm 29.76 1008 10 16 0.00 0.00
4:51 am 04:51 Clear 42 5.6 31 -0.6 65 65 E 5 7 29.75 1008 10 16 0.00 0.00
5:51 am 05:51 Clear 49 9.4 31 -0.6 50 50 E 9 15 29.76 1008 10 16 0.00 0.00
6:51 am 06:51 Sunny 41 5 31 -0.6 67 67 N 5 7 29.78 1009 10 16 0.00 0.00
7:51 am 07:51 Sunny 48 8.9 33 0.6 56 56 SW 3 6 29.78 1009 10 16 0.00 0.00
8:51 am 08:51 Sunny 53 11.7 35 1.7 51 51 W 6 9 29.78 1008 10 16 0.00 0.00
9:51 am 09:51 Sunny 62 16.7 33 0.6 34 34 ESE 12 19 29.76 1008 10 16 0.00 0.00
10:51 am 10:51 Sunny 65 18.3 33 0.6 31 31 ESE 10 17 29.74 1007 10 16 0.00 0.00
11:51 am 11:51 Sunny 67 19.4 33 0.6 28 28 undefined N/A 29.73 1007 10 16 0.00 0.00
12:51 pm 12:51 Mostly Sunny 65 18.3 30 -1.1 27 27 VRB 6 9 29.68 1005 10 16 0.00 0.00
1:51 pm 13:51 Mostly Sunny 68 20 28 -2.2 22 22 S 17 28 29.65 1004 10 16 0.00 0.00
2:51 pm 14:51 Mostly Cloudy 68 20 26 -3.3 21 21 SSW 15 24 29.64 1004 10 16 0.00 0.00
3:51 pm 15:51 Mostly Sunny 66 18.9 26 -3.3 22 22 SSW 14 22 29.63 1003 10 16 0.00 0.00
4:51 pm 16:51 Mostly Cloudy 63 17.2 32 0 31 31 SW 16 26 29.65 1004 10 16 0.00 0.00
5:51 pm 17:51 Cloudy 60 15.6 34 1.1 38 38 SW 18 30 29.65 1004 10 16 0.00 0.00
6:51 pm 18:51 Cloudy 60 15.6 33 0.6 36 36 W 9 15 29.70 1006 10 16 0.00 0.00
7:51 pm 19:51 Cloudy 57 13.9 36 2.2 45 45 NW 10 17 29.72 1006 10 16 0.00 0.00
8:51 pm 20:51 Mostly Clear 51 10.6 36 2.2 56 56 NW 3 6 29.74 1007 10 16 0.00 0.00
9:51 pm 21:51 Clear 49 9.4 36 2.2 61 61 N 7 11 29.72 1007 10 16 0.00 0.00
10:51 pm 22:51 Clear 49 9.4 36 2.2 61 61 Calm 29.72 1006 10 16 0.00 0.00
11:51 pm 23:51 Clear 47 8.3 35 1.7 63 63 ESE 8 13 29.71 1006 10 16 0.00 0.00

Powered by AerisWeather